Weather History for Dayton Wright, OH

Change the Weather History Date:

Sunday, January 20, 2013

  Actual Average (KFFO) Record (KFFO)
Temperature  
Mean Temperature 35 °F -  
Max Temperature 46 °F 32 °F 60 °F (2006)
Min Temperature 23 °F 15 °F 1 °F (2008)
Degree Days  
Heating Degree Days 30    
Moisture  
Dew Point 15 °F    
Average Humidity 51    
Maximum Humidity 65    
Minimum Humidity 40    
Precipitation  
Precipitation 0.00 in - - ()
Sea Level Pressure  
Sea Level Pressure 30.13 in    
Wind  
Wind Speed 13 mph (WNW)    
Max Wind Speed 20 mph    
Max Gust Speed 37 mph    
Visibility 10 miles    
Events      
Averages and records for this station are not official NWS values.
T = Trace of Precipitation, MM = Missing Value Source: NWS Daily Summary

Daily Weather History Graph

Daily Weather History Graph

Search for Another Location

Airport:

Trip Planner

Search our weather history database for the weather conditions in past years. The results will help you decide how hot, cold, wet, or windy it might be!

Date:

Astronomy

Jan. 20, 2013 Rise Set
Actual Time 7:53 AM EST 5:43 PM EST
Civil Twilight 7:24 AM EST 6:12 PM EST
Nautical Twilight 6:51 AM EST 6:45 PM EST
Astronomical Twilight 6:19 AM EST 7:17 PM EST
Moon 12:43 PM EST (1/20) 2:24 AM EST (1/20)
Length of Visible Light 10h 48m
Length of Day
9h 49m
Waxing Gibbous, 66% of the Moon is Illuminated
Jan 20
Waxing Gibbous
Jan 26
Full
Feb 3
Last Quarter
Feb 10
New
Feb 17
First Quarter

Hourly Weather History & Observations

Time (EST) Temp. Windchill Dew Point Humidity Pressure Visibility Wind Dir Wind Speed Gust Speed Precip Events Conditions
12:53 AM 46.0 °F 39.0 °F 28.9 °F 51% 29.89 in 10.0 mi SW 17.3 mph 25.3 mph N/A   Clear
1:53 AM 45.0 °F 38.5 °F 32.0 °F 60% 29.90 in 10.0 mi SW 13.8 mph 21.9 mph N/A   Clear
2:53 AM 44.1 °F 37.7 °F 33.1 °F 65% 29.93 in 10.0 mi WSW 12.7 mph 23.0 mph N/A   Clear
3:53 AM 43.0 °F 34.5 °F 30.9 °F 62% 29.96 in 10.0 mi West 19.6 mph 36.8 mph N/A   Mostly Cloudy
4:53 AM 37.9 °F 29.6 °F 19.0 °F 47% 30.00 in 10.0 mi WNW 13.8 mph 28.8 mph N/A   Clear
5:53 AM 35.1 °F 24.8 °F 16.0 °F 46% 30.02 in 10.0 mi West 17.3 mph 25.3 mph N/A   Clear
6:53 AM 30.9 °F 19.1 °F 10.9 °F 43% 30.06 in 10.0 mi WNW 18.4 mph 23.0 mph N/A   Clear
7:53 AM 28.9 °F 19.8 °F 9.0 °F 43% 30.10 in 10.0 mi WNW 10.4 mph - N/A   Clear
8:53 AM 27.0 °F 15.6 °F 10.9 °F 51% 30.15 in 10.0 mi NW 13.8 mph 19.6 mph N/A   Clear
9:53 AM 28.0 °F 17.5 °F 12.9 °F 53% 30.19 in 10.0 mi WNW 12.7 mph 20.7 mph N/A   Clear
10:53 AM 27.0 °F 15.6 °F 12.9 °F 56% 30.22 in 10.0 mi WNW 13.8 mph 21.9 mph N/A   Clear
11:53 AM 28.0 °F 18.1 °F 12.9 °F 53% 30.23 in 10.0 mi West 11.5 mph - N/A   Clear
12:53 PM 30.0 °F 21.7 °F 12.9 °F 49% 30.21 in 10.0 mi NW 9.2 mph 17.3 mph N/A   Clear
1:53 PM 30.0 °F 25.2 °F 10.0 °F 43% 30.19 in 10.0 mi West 4.6 mph - N/A   Clear
2:53 PM 30.9 °F 22.8 °F 9.0 °F 40% 30.18 in 10.0 mi WNW 9.2 mph - N/A   Clear
3:53 PM 30.9 °F 23.5 °F 9.0 °F 40% 30.19 in 10.0 mi WNW 8.1 mph - N/A   Clear
4:53 PM 28.9 °F 20.4 °F 10.9 °F 47% 30.20 in 10.0 mi WNW 9.2 mph - N/A   Mostly Cloudy
5:53 PM 28.0 °F 20.8 °F 8.1 °F 43% 30.22 in 10.0 mi West 6.9 mph - N/A   Overcast
6:53 PM 27.0 °F 20.5 °F 10.0 °F 49% 30.22 in 10.0 mi WNW 5.8 mph - N/A   Mostly Cloudy
7:53 PM 26.1 °F 18.4 °F 10.0 °F 51% 30.22 in 10.0 mi WNW 6.9 mph - N/A   Partly Cloudy
8:53 PM 25.0 °F 18.1 °F 10.0 °F 53% 30.21 in 10.0 mi NW 5.8 mph - N/A   Clear
9:53 PM 24.1 °F 18.2 °F 12.0 °F 60% 30.21 in 10.0 mi NNW 4.6 mph - N/A   Mostly Cloudy
10:53 PM 24.1 °F 17.0 °F 12.0 °F 60% 30.20 in 10.0 mi NNW 5.8 mph - N/A   Overcast
11:53 PM 23.0 °F 17.0 °F 12.0 °F 63% 30.19 in 10.0 mi WNW 4.6 mph - N/A   Overcast